Regional Weather Roundup
Issued by NWS

Home | Current Version | Previous Version | Text Only | Print | Product List | Glossary Off
Versions: 1 2 3 4 5 6 7 8 9 10 11 12 13 14 15 16 17 18 19 20 21 22 23 24 25 26 27 28 29 30 31 32 33 34 35 36 37 38 39 40 41 42 43 44 45 46 47 48 49 50

000
ASUS43 KIND 202159
RWRIN

WEATHER ROUNDUP FOR INDIANA
NATIONAL WEATHER SERVICE INDIANAPOLIS IN
600 PM EDT SUN APR 20 2014

NOTE: "FAIR" INDICATES FEW OR NO CLOUDS BELOW 12,000 FEET WITH NO
SIGNIFICANT WEATHER AND/OR OBSTRUCTIONS TO VISIBILITY.

* - STATION DOES NOT REPORT WEATHER SUCH AS PRECIPITATION OR FOG.

+ - STATION NOT QUALITY CONTROLLED BY THE NATIONAL WEATHER SERVICE.
    USE DATA WITH CAUTION...ESPECIALLY DEWPOINT AND RELATIVE
    HUMIDITY OBSERVATIONS.

INZ001>003-010>013-019-020-202300-
NORTHWEST INDIANA

CITY           SKY/WX    TMP DP  RH WIND       PRES   REMARKS
GARY /AIRPORT/ PTSUNNY   79  36  21 S7        30.09F
VALPARAISO     MOSUNNY   74  35  24 VRB5      30.11F

$$

LMZ046-743>745-202300-
SOUTHERN LAKE MICHIGAN

STATION/POSITION TIME  TEMP WIND        PRES
                       AIR  DIR/SP/G
                 (UTC) (F)  (DEG/KT/KT) (MB)
MICHIGAN CITY    2100   58   40/ 10/ 10   N/A

$$

INZ004-005-014>016-021>024-202300-
NORTH CENTRAL INDIANA

CITY           SKY/WX    TMP DP  RH WIND       PRES   REMARKS
ELKHART        MOSUNNY   72  27  18 CALM      30.14F
GOSHEN         MOSUNNY   74  31  20 SW9       30.13F
SOUTH BEND     MOSUNNY   75  33  21 S10       30.13F

$$

INZ006>009-017-018-025>027-202300-
NORTHEAST INDIANA

CITY           SKY/WX    TMP DP  RH WIND       PRES   REMARKS
ANGOLA *+      SUNNY     72  34  25 SW6       30.14F
FORT WAYNE     PTSUNNY   73  33  23 SW8       30.15F

$$

INZ028-029-035-036-043>045-051>053-202300-
WEST CENTRAL INDIANA

CITY           SKY/WX    TMP DP  RH WIND       PRES   REMARKS
GREENCASTLE +  PTSUNNY   73  41  31 SW3       30.14S
LAFAYETTE      SUNNY     74  37  26 SE3       30.12F
TERRE HAUTE    MOSUNNY   74  39  28 CALM      30.13F

$$

INZ030>032-037>040-046>048-054>057-064-065-202300-
CENTRAL INDIANA

CITY           SKY/WX    TMP DP  RH WIND       PRES   REMARKS
COLUMBUS       SUNNY     73  36  25 SE6       30.14F
INDIANAPOLIS   PTSUNNY   73  31  21 S5        30.13F
-EAGLE CREEK   PTSUNNY   73  31  21 CALM      30.13F
KOKOMO *+        N/A     73  30  20 SW7       30.14S
MT COMFORT *+  PTSUNNY   75  37  25 S6        30.14F
SHELBYVILLE    PTSUNNY   75  38  26 S7        30.13F

$$

INZ033-034-041-042-049-050-058-059-202300-
EAST CENTRAL INDIANA

CITY           SKY/WX    TMP DP  RH WIND       PRES   REMARKS
MUNCIE         MOSUNNY   74  35  24 SW7       30.14F

$$

INZ060-061-067>069-081>083-085>088-202300-
SOUTHWEST INDIANA

CITY           SKY/WX    TMP DP  RH WIND       PRES   REMARKS
EVANSVILLE     SUNNY     79  36  21 NE5       30.13F
HUNTINGBURG *+ MOSUNNY   77  39  25 CALM      30.13F

$$

INZ062-063-066-070>080-084-089>092-202300-
SOUTH CENTRAL AND SOUTHEAST INDIANA

CITY           SKY/WX    TMP DP  RH WIND       PRES   REMARKS
BLOOMINGTON    CLOUDY    76  29  17 CALM      30.13F

$$




USA.gov is the U.S. government's official web portal to all federal, state and local government web resources and services.